Content
SEND FEEDBACK

Daily
Averages
Monthly
Summary
Philippines

BOOT, PHILIPPINES


Home > Asia > Philippines
Elevation: 36 feet     Latitude: 14 04N     Longitude: 121 03E

WEATHER
 
SELECT A DAY
Number of Records: 172,299;   Date Range: 7/1/96 - 7/7/14
 
SHARE

PRINT THIS DATA

[ ← Previous Day ]
WEATHER ALMANAC - MARCH 20, 2013
[ Next Day → ]
[ °C ]   °F
Weather ElementAverageHighLow
Temperature84.4 °F91.4 °F (1:00 pm)77 °F (6:00 am)
Dewpoint70.1 °F73.4 °F (8:00 pm)67 °F (8:00 am)
Humidity61.4 %78 % (4:00 am)40 % (2:00 pm)
Barometer29.87 in29.95 in (9:00 am)29.80 in (3:00 pm)
Wind Speed8.5 mph13.8 mph (4:00 pm)
Weather ElementAverage
Visibility6.1 mi
Wind DirectionESE (111.6 °)

Weather ElementTotal
Precipitation---
Cooling Degree Days19.2 (Base 65)
Growing Degree Days34.2 (Base 50)
Averaged from 31 records on March 20, 2013
WEATHER CONDITIONS BREAKOUT
WIND DIRECTION BREAKOUT
WEATHER BY HOUR - MARCH 20, 2013
[ °C ]   °F
Local TimeTemperatureDewpointHumidityBarometerVisibilityWind DirectionWind SpeedGust SpeedPrecipitationEventsConditions
1:00 AM80.6 °F71.6 °F74 %29.86 in6.2 miEast (100°)8.1 mphPartly Cloudy
2:00 AM80.0 °F72.0 °F70 %29.87 in6.0 miEast (100°)6.7 mphScattered Clouds
2:00 AM80.6 °F71.6 °F74 %29.86 in6.2 miEast (100°)6.9 mphPartly Cloudy
3:00 AM80.6 °F71.6 °F74 %29.86 in6.2 miEast (100°)6.9 mphPartly Cloudy
4:00 AM78.8 °F71.6 °F78 %29.86 in6.2 miEast (90°)5.8 mphPartly Cloudy
5:00 AM78.0 °F72.0 °F78 %29.90 in6.0 miEast (100°)4.5 mphScattered Clouds
5:00 AM78.8 °F71.6 °F78 %29.86 in6.2 miEast (100°)5.8 mphPartly Cloudy
6:00 AM77.0 °F69.8 °F78 %29.89 in6.2 miENE (70°)6.9 mphPartly Cloudy
7:00 AM78.8 °F68.0 °F69 %29.92 in6.2 miEast (100°)3.5 mphPartly Cloudy
8:00 AM83.0 °F67.0 °F50 %29.94 in6.0 miESE (110°)4.5 mphPartly Cloudy
8:00 AM82.4 °F68.0 °F62 %29.92 in6.2 miESE (110°)4.6 mphPartly Cloudy
9:00 AM86.0 °F68.0 °F55 %29.95 in6.2 miESE (110°)6.9 mphPartly Cloudy
10:00 AM87.8 °F69.8 °F55 %29.95 in6.2 miESE (120°)10.4 mphPartly Cloudy
11:00 AM88.0 °F71.0 °F49 %29.94 in6.0 miESE (110°)2.2 mphPartly Cloudy
11:00 AM87.8 °F69.8 °F55 %29.92 in6.2 miVariable9.2 mphPartly Cloudy
12:00 PM89.6 °F68.0 °F49 %29.89 in6.2 miESE (120°)11.5 mphPartly Cloudy
1:00 PM91.4 °F68.0 °F46 %29.86 in6.2 miSE (130°)12.7 mphPartly Cloudy
2:00 PM90.0 °F69.0 °F40 %29.83 in6.0 miSE (130°)11.2 mphPartly Cloudy
2:00 PM91.4 °F68.0 °F46 %29.83 in6.2 miSE (130°)11.5 mphPartly Cloudy
3:00 PM91.4 °F68.0 °F46 %29.80 in6.2 miSE (130°)12.7 mphPartly Cloudy
4:00 PM89.6 °F68.0 °F49 %29.80 in6.2 miESE (120°)13.8 mphPartly Cloudy
5:00 PM89.0 °F68.0 °F40 %29.81 in6.0 miSE (130°)11.2 mphScattered Clouds
5:00 PM89.6 °F68.0 °F49 %29.80 in6.2 miSE (130°)11.5 mphPartly Cloudy
6:00 PM86.0 °F69.8 °F58 %29.80 in6.2 miESE (120°)11.5 mphPartly Cloudy
7:00 PM84.2 °F71.6 °F66 %29.80 in6.2 miESE (120°)11.5 mphPartly Cloudy
8:00 PM84.0 °F73.0 °F62 %29.84 in6.0 miSE (140°)6.7 mphScattered Clouds
8:00 PM84.2 °F73.4 °F70 %29.83 in6.2 miSE (140°)6.9 mphPartly Cloudy
9:00 PM82.4 °F71.6 °F70 %29.86 in6.2 miSE (130°)9.2 mphPartly Cloudy
10:00 PM82.4 °F71.6 °F70 %29.86 in6.2 miSE (130°)9.2 mphPartly Cloudy
11:00 PM81.0 °F72.0 °F68 %29.88 in6.0 miESE (120°)8.9 mphScattered Clouds
11:00 PM80.6 °F71.6 °F74 %29.89 inESE (120°)9.2 mphPartly Cloudy
Hourly data recorded from RPLL, located miles away from Boot, Philippines







STORIES FROM OUR PARTNERS